Location: Newark
(46.7636°N, 1.8358°W)
Time: 02:12:45
(UTC+00:00)

Vanguard 2 Rocket - Pass Details

Date: 13 October 2019
Orbit: 554 x 3326 km, 32.9° (Epoch: 16 November)

Event Time Altitude Azimuth Distance (km) Brightness Sun altitude
Rises 08:22:16 0° 189° (S) 6,917 11.7 18.2°
Reaches altitude 10° 08:29:05 10° 174° (S) 6,161 11.8 19.1°
Maximum altitude 08:40:39 19° 138° (SE) 5,520 13.3 20.7°
Drops below altitude 10° 08:51:44 10° 102° (ESE) 5,947 12.3 22.2°
Sets 08:57:57 0° 87° (E) 6,613 12.0 23.0°
